Hourly Data Report for September 12, 2021

WINNIPEG THE FORKS
MANITOBA
Current Station Operator: ECCC - MSC

49°53'18.008" N
97°07'46.007" W
230.00 m
5023262
71579
XWN

Download Data

Hourly Data (September 2021)
Hourly Data Report for September 12, 2021
TIME
LST
Temp Definition
°C
Dew Point Definition
°C
Rel Hum Definition
%
Precip. Amount Definition
mm

Wind Dir Definition
10's deg

Wind Spd Definition
km/h
Visibility Definition
km
Stn Press Definition
kPa
Hmdx Definition


Wind Chill Definition


Weather Definition


00:00 12.5 6.5 67 0.0 35 6   99.01     LegendNANA
01:00 12.3 6.4 68 0.0 34 5   99.08     LegendNANA
02:00 12.2 6.2 67 0.0 34 5   99.09     LegendNANA
03:00 11.9 6.4 69 0.0 35 5   99.09     LegendNANA
04:00 11.7 6.5 70 0.0 34 3   99.10     LegendNANA
05:00 11.6 6.4 70 0.0 34 6   99.15     LegendNANA
06:00 11.0 6.0 71 0.0 35 3   99.21     LegendNANA
07:00 11.1 6.0 71 0.0 34 4   99.24     LegendNANA
08:00 11.5 5.9 69 0.0 32 2   99.25     LegendNANA
09:00 12.4 6.4 67 0.0 29 2   99.25     LegendNANA
10:00 13.6 6.6 63 0.0 28 2   99.28     LegendNANA
11:00 15.2 5.0 51 0.0 33 3   99.27     LegendNANA
12:00 16.9 5.4 47 0.0 4 4   99.24     LegendNANA
13:00 16.9 4.6 44 0.0 5 6   99.19     LegendNANA
14:00 18.0 3.4 38 0.0 4 4   99.14     LegendNANA
15:00 18.4 4.0 39 0.0 5 5   99.09     LegendNANA
16:00 18.7 3.3 36 0.0 4 8   99.05     LegendNANA
17:00 18.5 3.9 38 0.0 6 3   99.03     LegendNANA
18:00 17.7 4.0 40 0.0 12 2   99.02     LegendNANA
19:00 16.8 4.7 45 0.0 10 3   99.03     LegendNANA
20:00 16.9 4.6 44 0.0 10 2   99.06     LegendNANA
21:00 15.8 5.1 49 0.0   0   99.06     LegendNANA
22:00 15.1 5.6 53 0.0 9 3   99.02     LegendNANA
23:00 15.1 6.1 55 0.0 12 2   99.00     LegendNANA

Notes on Data Quality.

Legend

  • E = Estimated
  • M = Missing
  • NA = Not Available*
  • [empty] = Indicates an unobserved value
Date modified: